This demonstration page uses our WeatherBlox Daily Observations layout. Learn more.

Left ArrowRight Arrow

34.02893, -84.19858

Hourly Observations for May 25, 2022

Temp ( °F °C ) Dew Point ( °F °C ) Humidity (%) Winds ( mph kmh ) Pressure ( in mb ) Visibility ( mi km ) Precip ( " mm )
12:53 am 00:53 Mostly Cloudy 69 20.6 63 17.2 81 81 Calm 30.08 1019 10 16 0.00 0.00
1:53 am 01:53 Clear 69 20.6 63 17.2 81 81 Calm 30.06 1018 10 16 0.00 0.00
2:53 am 02:53 Cloudy with Light Rain 69 20.6 63 17.2 81 81 Calm 30.06 1018 10 16 0.00 0.00
3:53 am 03:53 Cloudy 68 20 63 17.2 84 84 E 9 15 30.06 1018 10 16 0.00 0.00
4:53 am 04:53 Mostly Cloudy 67 19.4 63 17.2 87 87 VRB 3 6 30.07 1018 10 16 0.00 0.00
5:04 am 05:04 Mostly Cloudy 67 19.4 64 17.8 91 91 undefined N/A 30.10 1019 10 16 0.00 0.00
5:14 am 05:14 Cloudy 68 20 64 17.8 87 87 VRB 6 9 30.09 1019 10 16 0.00 0.00
5:53 am 05:53 Cloudy 67 19.4 64 17.8 91 91 VRB 3 6 30.08 1019 10 16 0.00 0.00
6:45 am 06:45 Cloudy with Thunderstorms 68 20 64 17.8 87 87 VRB 5 7 30.10 1019 10 16 0.00 0.00
6:53 am 06:53 Cloudy with Thunderstorms 68 20 64 17.8 87 87 VRB 5 7 30.09 1019 10 16 0.00 0.00
7:01 am 07:01 Cloudy with Heavy Rain 67 19.4 64 17.8 91 91 undefined N/A 30.12 1020 4 6 0.11 2.79
7:43 am 07:43 Cloudy with Mist and Fog 66 18.9 65 18.3 96 96 VRB 5 7 30.12 1020 4 6 0.12 3.05
7:53 am 07:53 Cloudy with Mist and Fog 66 18.9 64 17.8 93 93 VRB 6 9 30.09 1019 4 6 0.12 3.05
8:53 am 08:53 Cloudy 64 17.8 63 17.2 96 96 VRB 6 9 30.12 1020 9 14 0.00 0.00
9:53 am 09:53 Cloudy 65 18.3 63 17.2 93 93 VRB 5 7 30.13 1020 10 16 0.00 0.00
10:53 am 10:53 Cloudy 66 18.9 63 17.2 90 90 VRB 6 9 30.14 1021 10 16 0.00 0.00
11:53 am 11:53 Cloudy 67 19.4 63 17.2 87 87 undefined N/A 30.14 1021 10 16 0.00 0.00
12:24 pm 12:24 Cloudy 68 20 64 17.8 87 87 undefined N/A 30.14 1021 10 16 0.00 0.00
12:53 pm 12:53 Cloudy 68 20 64 17.8 87 87 Calm 30.13 1020 10 16 0.00 0.00
1:39 pm 13:39 Mostly Cloudy 71 21.7 64 17.8 79 79 VRB 7 11 30.11 1020 10 16 0.00 0.00
1:53 pm 13:53 Cloudy 72 22.2 65 18.3 79 79 VRB 3 6 30.10 1019 10 16 0.00 0.00
2:53 pm 14:53 Cloudy 75 23.9 65 18.3 71 71 VRB 5 7 30.08 1019 10 16 0.00 0.00
3:27 pm 15:27 Partly Cloudy 75 23.9 66 18.9 74 74 VRB 3 6 30.08 1019 10 16 0.00 0.00
3:53 pm 15:53 Mostly Sunny 73 22.8 65 18.3 76 76 VRB 5 7 30.08 1019 10 16 0.00 0.00
4:53 pm 16:53 Mostly Cloudy 73 22.8 65 18.3 76 76 VRB 3 6 30.08 1019 10 16 0.00 0.00
5:36 pm 17:36 Cloudy with Light Rain 72 22.2 66 18.9 82 82 Calm 30.07 1018 8 13 0.01 0.25
5:53 pm 17:53 Cloudy with Light Rain 70 21.1 67 19.4 90 90 VRB 3 6 30.06 1018 5 8 0.03 0.76
6:02 pm 18:02 Cloudy with Light Rain 70 21.1 67 19.4 90 90 VRB 6 9 30.07 1018 6 10 0.01 0.25
6:14 pm 18:14 Cloudy with Light Rain 70 21.1 66 18.9 87 87 undefined N/A 30.06 1018 5 8 0.03 0.76
6:22 pm 18:22 Cloudy with Light Rain 70 21.1 67 19.4 90 90 Calm 30.07 1018 5 8 0.04 1.02
6:53 pm 18:53 Partly Cloudy 71 21.7 68 20 90 90 E 6 9 30.06 1018 9 14 0.04 1.02
7:37 pm 19:37 Mostly Cloudy 70 21.1 68 20 93 93 Calm 30.07 1018 7 11 0.00 0.00
7:51 pm 19:51 Mostly Cloudy 70 21 68 20 94 94 Calm 30.07 1018 7 11 0.00 0.00
7:53 pm 19:53 Mostly Cloudy 70 21.1 68 20 93 93 undefined N/A 30.07 1018 7 11 0.00 0.00
8:16 pm 20:16 Cloudy with Light Rain 69 20.6 68 20 96 96 VRB 3 6 30.07 1018 6 10 0.00 0.00
8:53 pm 20:53 Mostly Cloudy 68 20 67 19.4 96 96 undefined N/A 30.07 1018 9 14 0.00 0.00
9:16 pm 21:16 Mostly Cloudy 68 20 66 18.9 93 93 VRB 3 6 30.06 1018 9 14 0.00 0.00
9:53 pm 21:53 Cloudy 68 20 66 18.9 93 93 Calm 30.07 1018 9 14 0.00 0.00
10:53 pm 22:53 Cloudy 68 20 66 18.9 93 93 VRB 3 6 30.09 1019 9 14 0.00 0.00
11:53 pm 23:53 Cloudy 68 20 66 18.9 93 93 undefined N/A 30.09 1019 9 14 0.00 0.00

Powered by AerisWeather